Flag for Germany Weather past 2 weeks in Jena, Thuringia, Germany

Now
48 °F

Partly cloudy.


Feels Like: 42 °F
Forecast: 41 / 46 °F
Wind: 18 mph from Southwest

Location: Erfurt-Bindersleben

Current Time: Mar 29, 2015 at 8:09:31 AM

Latest Report: Mar 29, 2015 at 7:20 AM


Visibility: N/A

Pressure: 29.68 "Hg

Humidity: 87%

Dew point: 45 °F

Location of JenaLocation

Historic Weather in Jena — Graph

°F

Jena temperature yesterday

Maximum temperature yesterday: 52 °F (at 3:20 PM)
Minimum temperature yesterday: 37 °F (at 5:20 AM)
Average temperature yesterday: 44 °F

Past Weeks' High & Low Weather Summary

 TemperatureHumidityPressure
High63 °F (Mar 25, 3:50 PM)100% (Mar 14, 7:20 AM)30.33 "Hg (Mar 14, 7:20 AM)
Low27 °F (Mar 20, 5:50 AM)30% (Mar 20, 2:50 PM)29.59 "Hg (Mar 25, 9:50 PM)
Average41 °F80%30.08 "Hg
* Reported Mar 14 5:20 AM — Mar 29 6:50 AM, Jena, Weather by CustomWeather, © 2015

Note: Actual official high and low records may vary slightly from our data, if they occured in-between our weather recording intervals... More about our weather records

Advertising

Jena weather history for previous 24 hours

 ConditionsComfort  
Time TempWeatherWind HumidityBarometerVisibility
6:50 AM
Sun, Mar 29
48 °FLight rain. Passing clouds.17 mph87%29.68 "HgN/A
6:20 AM48 °FPassing clouds.15 mph87%29.68 "HgN/A
5:50 AM48 °FPassing clouds.15 mph87%29.68 "HgN/A
5:20 AM48 °FPassing clouds.17 mph87%29.71 "HgN/A
4:50 AM46 °FPartly cloudy.17 mph93%29.71 "HgN/A
4:20 AM46 °FLight rain. Passing clouds.17 mph93%29.74 "HgN/A
3:50 AM46 °FLight rain. Passing clouds.15 mph87%29.77 "HgN/A
3:20 AM45 °FPassing clouds.15 mph93%29.77 "HgN/A
1:50 AM45 °FPartly cloudy.13 mph93%29.80 "HgN/A
1:20 AM46 °FLight rain. Partly cloudy.15 mph87%29.80 "HgN/A
12:50 AM46 °FPassing clouds.16 mph87%29.83 "HgN/A
12:20 AM45 °FPartly cloudy.17 mph87%29.83 "HgN/A
11:50 PM
Sat, Mar 28
45 °FPassing clouds.16 mph87%29.83 "HgN/A
11:20 PM45 °FPassing clouds.13 mph87%29.86 "HgN/A
10:50 PM45 °FPassing clouds.12 mph87%29.86 "HgN/A
10:20 PM45 °FPassing clouds.15 mph81%29.86 "HgN/A
9:50 PM45 °FLight rain. Passing clouds.15 mph81%29.89 "HgN/A
9:20 PM45 °FLight rain. Passing clouds.15 mph81%29.89 "HgN/A
8:50 PM45 °FPassing clouds.10 mph76%29.92 "HgN/A
8:20 PM45 °FLight rain. Partly cloudy.9 mph81%29.92 "HgN/A
7:50 PM45 °FLight rain. Mostly cloudy.9 mph81%29.92 "HgN/A
7:20 PM45 °FLight rain. Passing clouds.10 mph76%29.92 "HgN/A
6:50 PM46 °FLight rain. Mostly cloudy.14 mph66%29.95 "HgN/A
6:20 PM50 °FLight rain. Clear.12 mph47%29.95 "HgN/A
5:50 PM50 °FSunny.10 mph47%29.95 "Hg10 mi
5:20 PM50 °FSunny.12 mph47%29.95 "Hg10 mi
4:50 PM52 °FSunny.14 mph44%29.95 "Hg10 mi
4:20 PM52 °FSunny.12 mph41%29.98 "Hg10 mi
3:50 PM52 °FSunny.12 mph41%29.98 "Hg10 mi
3:20 PM52 °FSunny.14 mph44%30.01 "Hg10 mi
2:50 PM50 °FSunny.12 mph43%30.01 "Hg10 mi
2:20 PM50 °FSunny.14 mph47%30.04 "Hg10 mi
1:50 PM50 °FPassing clouds.12 mph43%30.04 "HgN/A
1:20 PM50 °FPassing clouds.13 mph40%30.07 "HgN/A
12:50 PM48 °FPassing clouds.10 mph46%30.07 "HgN/A
12:20 PM48 °FScattered clouds.12 mph46%30.09 "HgN/A
11:50 AM46 °FScattered clouds.10 mph46%30.09 "HgN/A
11:20 AM46 °FScattered clouds.9 mph46%30.12 "HgN/A
10:50 AM45 °FPartly sunny.10 mph53%30.12 "HgN/A
10:20 AM43 °FScattered clouds.7 mph53%30.15 "HgN/A
9:50 AM43 °FScattered clouds.6 mph61%30.15 "HgN/A
9:20 AM43 °FPassing clouds.7 mph61%30.15 "HgN/A
8:50 AM41 °FPassing clouds.6 mph76%30.15 "HgN/A
8:20 AM39 °FPassing clouds.7 mph81%30.18 "HgN/A
Weather by CustomWeather, © 2015

See weather overviewHow to use our weather pages